RH
18 18 19 19 19 18 17 18 21 22 21 22 24 26 23 19 17 15 13 13 11 10 10 10 9 10 10 9 9 10 11 13 14 14 15 15 16 20 21 22 25 25 24
19 19 20 20 20 22 21 19 19 19 20 21 23 25 25 22 19 17 16 14 12 12 11 10 10 9 10 10 10 10 11 12 14 16 16 16 18 18 19 21 22 23 26
23 24 24 24 24 24 22 21 20 19 19 20 22 24 26 26 22 19 17 15 14 12 11 11 11 10 10 10 10 10 10 12 13 15 18 19 19 20 20 20 21 22 24
28 27 28 27 27 29 30 29 28 27 25 25 25 26 26 25 23 22 20 19 16 15 14 13 13 12 11 11 11 11 11 12 12 13 16 19 20 19 20 22 22 23 25
36 37 37 37 34 34 34 35 34 34 33 33 32 31 31 30 28 25 25 24 22 19 16 15 14 13 12 12 12 12 12 13 13 13 14 16 18 20 22 23 23 23 24
46 47 46 46 45 44 43 42 41 40 39 37 38 39 39 38 36 33 31 30 29 28 23 19 17 16 15 13 13 13 13 13 13 14 14 15 17 21 22 25 26 27 28
52 52 51 51 51 52 52 50 48 46 44 43 42 41 42 42 41 40 38 37 36 35 33 30 26 20 18 19 17 16 16 15 15 15 15 15 16 17 20 24 29 30 30
37 36 36 37 39 42 46 52 55 55 54 52 49 46 45 46 46 46 44 44 44 42 40 37 35 31 26 20 20 19 21 20 19 18 18 18 17 18 20 22 26 30 32
18 17 17 17 19 22 26 29 32 36 41 48 54 55 54 53 52 51 50 50 50 50 48 44 41 37 34 30 26 24 23 23 23 25 24 22 21 21 22 23 27 31 31
3 2 2 2 2 2 2 3 4 5 11 20 34 42 45 54 57 55 54 54 53 53 53 51 49 46 40 34 30 27 27 26 28 31 33 30 31 30 30 30 32 38 40
3 3 3 3 3 3 3 2 2 2 2 2 2 4 22 50 54 55 57 58 58 58 55 55 53 49 46 40 35 31 30 30 31 39 42 40 40 35 37 41 47 49 48
4 4 4 4 4 4 3 3 3 3 3 3 3 2 2 3 15 47 57 61 60 58 59 60 62 57 50 46 41 37 35 32 34 42 46 46 47 39 41 45 44 46 50
5 5 5 5 5 4 4 4 4 4 4 3 4 3 3 3 4 11 30 58 67 66 64 59 67 81 68 63 55 44 38 36 34 47 52 51 52 49 50 51 54 54 53
6 6 5 5 5 4 4 4 4 4 4 4 4 3 3 3 4 4 8 24 63 95 95 83 64 74 100 96 90 88 62 44 57 64 75 67 63 68 66 71 80 80 73
5 4 4 4 4 4 4 4 4 4 4 3 3 4 4 5 5 4 4 6 9 50 100 100 100 95 85 100 100 100 100 98 91 90 98 93 97 99 98 98 100 96 92
4 4 4 4 4 5 5 5 5 6 6 6 7 7 7 7 8 10 14 12 8 16 89 100 100 100 100 100 100 100 100 100 95 100 99 99 96 98 100 100 100 100 100
10 11 12 12 12 11 11 10 10 9 8 8 8 8 8 8 8 9 10 11 42 94 79 76 99 100 100 100 100 100 100 100 100 100 100 100 100 100 100 100 100 100 100
20 20 20 21 20 19 18 18 18 17 17 17 17 18 19 18 20 21 31 57 70 59 83 100 100 100 100 100 100 100 100 100 100 100 100 100 100 100 100 100 100 100 100
37 39 43 45 50 47 47 46 44 41 38 38 38 39 38 36 38 43 56 67 100 100 100 100 100 100 100 100 100 100 100 100 100 100 100 100 100 100 100 100 100 100 100
59 58 58 57 54 53 49 48 50 54 57 59 62 63 61 59 58 59 59 55 68 85 95 100 100 100 100 100 100 100 100 100 100 100 100 100 100 100 100 100 100 100 100
77 75 69 61 55 50 48 46 45 43 42 42 42 43 43 43 44 48 52 53 63 63 61 77 92 97 100 100 100 100 100 100 100 100 100 100 100 100 100 100 100 100 100
48 41 34 31 28 26 25 24 24 23 22 21 21 22 24 27 32 37 42 43 45 48 55 68 70 71 74 79 91 98 100 100 100 100 100 100 100 100 100 100 100 100 100
36 37 36 36 35 34 32 29 29 28 28 29 30 31 31 30 29 25 22 20 23 32 42 44 49 64 81 83 82 86 82 88 96 100 100 100 100 100 100 100 100 100 100
29 29 30 29 28 27 26 26 26 26 26 27 28 27 27 26 26 27 29 30 29 26 22 21 24 35 44 56 69 82 90 93 88 76 80 96 99 100 100 100 100 100 100
18 19 19 19 19 20 20 20 20 20 20 20 20 20 21 23 25 26 26 26 25 25 26 28 28 25 21 22 30 44 56 64 71 75 77 76 71 70 74 81 88 95 96
24 25 26 26 27 28 28 28 28 28 28 29 29 29 28 27 25 22 19 18 18 20 24 25 24 23 24 27 27 25 23 25 33 46 55 58 60 63 68 74 71 68 66
Wind_Speed
29 29 30 30 30 30 30 29 29 31 32 33 32 32 34 35 36 36 37 36 37 37 38 38 38 39 38 38 36 34 33 33 31 28 27 28 28 28 29 31 33 34 35
33 33 34 34 34 34 35 34 34 35 36 36 36 37 38 38 38 37 37 38 39 40 41 41 41 42 42 41 40 39 38 38 36 33 32 29 30 30 31 32 33 35 36
38 38 38 38 39 40 40 39 39 39 40 41 41 42 42 41 41 41 40 39 39 41 42 43 43 44 44 44 43 43 42 41 41 40 37 35 34 34 33 33 34 35 37
41 42 42 42 42 43 43 44 45 45 45 45 46 46 46 47 46 45 43 42 41 41 42 44 45 45 45 46 46 46 46 45 44 45 43 41 39 39 38 37 37 37 37
44 44 44 44 46 46 46 47 47 48 49 49 49 49 49 49 50 50 47 46 45 44 43 44 46 47 48 49 50 49 49 50 49 48 49 47 45 44 43 42 40 39 40
44 45 45 45 46 47 47 48 49 50 51 51 52 52 53 53 54 53 52 50 49 49 50 50 49 49 49 51 53 53 52 53 53 52 51 51 51 50 48 47 45 44 43
49 50 50 50 51 51 51 52 52 53 54 55 56 57 57 57 58 58 57 55 55 55 56 56 56 55 53 52 54 54 55 54 56 56 55 56 55 54 53 51 49 49 48
55 55 55 55 56 57 57 57 59 59 59 60 61 62 63 63 63 63 63 61 60 61 61 61 61 62 62 60 59 59 57 58 58 60 60 59 58 58 58 57 55 54 52
53 53 54 54 55 57 59 61 62 63 64 65 66 67 68 69 70 69 69 68 66 66 66 66 66 66 67 66 65 65 64 62 62 62 63 63 62 61 60 60 59 59 58
52 53 54 54 55 56 58 58 60 62 64 66 67 68 68 71 74 75 75 75 73 70 70 70 71 71 70 70 69 66 65 65 66 65 66 66 65 63 62 62 62 62 61
59 59 60 61 61 62 63 64 65 65 66 66 68 68 70 72 75 78 79 80 79 78 75 74 75 76 76 75 75 74 71 68 68 68 69 69 68 66 64 64 63 63 63
65 67 67 68 69 69 70 70 71 72 72 72 72 73 74 75 76 79 81 83 84 85 82 80 79 80 80 81 80 79 77 75 73 72 73 72 72 71 70 69 67 65 65
73 74 75 76 77 77 78 78 79 79 80 81 81 81 81 82 83 84 86 87 87 88 89 87 86 85 85 85 82 81 80 79 77 76 76 76 76 75 74 72 73 72 71
79 81 82 83 84 84 85 86 86 86 87 87 88 88 88 88 88 88 90 92 92 91 93 94 93 92 91 90 88 84 84 80 80 78 79 80 80 79 79 77 74 73 73
84 85 86 88 89 89 90 90 91 90 90 90 89 88 88 88 90 91 92 93 94 96 92 93 98 99 97 95 93 92 88 89 89 82 80 82 84 84 83 81 78 76 75
84 85 87 88 88 88 87 87 87 87 87 86 86 86 85 86 88 90 91 92 94 95 95 98 96 94 97 97 97 94 93 88 87 88 88 86 87 85 86 87 83 79 77
78 78 78 78 79 79 78 76 77 78 78 78 78 79 79 81 82 84 89 90 91 90 92 98 100 97 100 93 91 88 86 84 92 91 91 91 91 90 93 91 90 87 85
68 67 66 66 67 67 67 68 69 70 70 70 70 69 69 69 68 69 74 77 80 82 92 89 85 80 78 84 90 91 91 87 94 96 100 97 93 91 93 96 94 92 91
60 59 59 59 59 61 61 61 62 64 64 64 65 65 66 65 66 66 67 70 78 76 81 82 81 83 83 83 80 80 85 90 94 92 92 98 101 98 95 96 95 97 100
56 57 58 59 61 62 62 63 64 65 65 65 65 65 65 64 63 64 65 68 71 75 77 77 76 78 79 82 83 81 81 79 80 85 86 90 91 93 95 96 95 94 93
58 60 62 64 66 67 67 68 68 69 69 70 70 70 71 72 71 70 68 66 66 69 74 78 80 81 79 79 82 84 85 84 81 82 80 79 82 83 81 83 83 85 86
63 64 64 64 65 66 67 67 68 68 68 68 68 68 68 69 70 72 72 73 73 72 71 70 72 75 78 80 80 81 84 86 85 84 86 86 86 84 82 82 81 81 82
68 69 70 70 71 72 73 73 74 74 74 75 75 76 76 76 75 74 74 73 73 73 75 76 75 74 74 74 76 76 78 81 84 86 88 90 92 92 91 89 88 86 85
71 72 72 73 74 75 76 78 78 78 78 78 79 79 79 80 81 81 80 79 79 78 77 77 76 78 79 79 77 76 76 75 76 78 82 84 85 86 87 89 90 92 93
68 68 67 67 66 66 67 68 69 70 72 73 76 78 81 83 84 85 84 83 82 83 83 83 82 81 80 79 80 81 82 81 80 79 79 78 78 78 77 79 80 82 83
53 53 54 54 54 55 56 57 57 58 59 60 62 64 67 70 72 76 79 82 86 88 88 86 85 85 85 84 83 84 83 83 83 84 84 83 82 81 79 78 78 77 77
Wind_Direction
258 258 259 262 263 264 262 262 262 263 264 264 263 262 262 265 269 272 272 267 262 259 257 256 256 256 256 257 258 258 258 261 262 262 260 261 263 263 259 256 254 254 255
258 258 260 261 262 262 263 262 262 263 265 266 266 266 266 266 266 267 268 268 265 262 259 257 256 256 256 256 257 258 258 258 260 260 258 257 257 258 260 260 260 259 258
259 260 260 260 261 263 264 264 263 262 262 262 263 264 264 265 266 265 265 265 267 269 266 262 260 258 258 258 258 258 258 259 259 260 260 256 255 254 256 256 258 260 260
261 262 261 260 261 262 262 264 264 264 263 262 261 261 263 264 264 263 264 265 265 264 265 264 261 259 259 258 259 259 259 258 258 259 260 259 258 259 258 259 259 260 261
261 261 262 263 264 263 263 262 262 263 263 263 262 261 261 262 262 262 261 262 263 261 261 263 264 262 260 259 258 258 258 257 257 258 259 260 260 261 261 262 262 261 261
262 262 262 261 261 262 262 262 262 261 261 260 260 260 260 261 261 261 261 260 259 260 259 257 256 259 262 262 260 259 260 259 259 260 260 260 260 261 261 261 263 262 262
263 262 262 262 262 261 261 261 261 260 260 260 261 261 261 262 263 263 261 259 258 258 258 258 258 256 254 257 260 262 262 262 261 260 260 259 260 261 261 262 262 262 262
266 266 265 264 264 263 262 261 261 260 260 260 260 261 261 261 262 262 262 261 260 259 259 258 258 258 256 252 252 254 257 260 260 260 259 259 258 259 260 261 262 262 262
267 267 266 265 264 263 262 262 260 260 260 260 259 259 259 260 260 261 261 261 260 259 259 259 258 258 257 255 255 255 255 254 256 258 258 257 257 258 259 260 261 262 262
268 268 267 266 266 265 265 264 263 263 262 260 260 260 259 259 259 259 259 259 258 257 257 257 257 257 258 257 254 253 254 254 254 255 255 255 256 256 257 259 260 261 262
270 270 270 270 269 269 268 266 265 264 263 262 262 261 259 258 258 259 259 259 259 257 254 255 256 256 257 256 256 255 253 254 254 253 254 254 254 254 254 255 256 259 261
277 277 277 276 275 274 273 271 269 267 265 263 262 261 261 260 258 258 259 259 259 258 255 253 254 255 255 256 256 256 255 254 253 252 253 253 254 254 253 254 256 257 258
277 277 276 276 275 275 274 272 271 269 267 266 265 263 260 259 259 258 257 256 257 258 258 255 252 253 255 256 256 256 256 254 251 250 250 251 252 253 254 256 259 259 258
277 277 277 277 276 275 275 274 272 271 269 268 266 265 264 262 259 256 255 255 255 255 256 256 256 253 252 255 256 257 256 255 252 250 250 250 251 252 253 255 256 257 258
278 278 277 276 276 276 275 275 274 273 273 271 269 267 264 262 261 259 257 254 253 252 253 256 256 256 256 255 256 257 256 256 254 254 252 252 251 252 253 253 254 254 255
276 276 276 276 276 276 276 276 275 275 274 273 272 270 268 265 261 259 259 257 254 253 250 251 254 254 253 254 252 252 253 252 252 253 253 252 253 253 254 254 252 252 252
276 276 275 275 275 275 275 275 274 274 273 273 272 271 270 268 265 262 259 258 255 253 255 255 255 259 254 253 252 251 249 249 254 249 249 251 250 248 250 249 251 251 252
279 279 278 278 277 276 275 275 275 274 274 274 273 273 272 271 269 265 261 257 256 254 253 254 252 252 252 252 250 250 251 252 248 247 250 252 251 251 249 248 248 250 250
279 279 279 279 279 278 278 277 276 276 275 274 274 273 272 271 269 267 264 260 255 255 252 252 252 254 253 253 254 253 251 249 250 250 248 250 253 255 256 255 251 250 247
280 280 279 279 279 278 277 276 275 274 274 273 273 273 273 273 272 270 268 264 261 258 258 257 254 251 250 252 254 254 253 252 251 251 250 251 252 252 254 254 255 254 253
280 280 280 280 280 280 279 279 278 277 276 274 273 272 272 271 271 270 268 267 265 263 260 258 257 255 255 254 252 250 250 250 250 252 254 252 251 250 248 249 250 252 253
283 283 283 283 283 282 281 280 279 278 277 276 275 273 272 271 270 269 268 266 264 263 262 261 260 260 259 258 257 255 252 249 249 249 251 253 253 251 253 254 251 250 250
287 286 285 284 283 282 282 281 280 279 278 276 275 274 273 271 270 268 267 266 265 263 261 260 259 259 259 259 258 258 258 257 254 250 248 248 249 250 252 254 254 254 253
286 286 286 285 284 284 283 282 281 280 278 277 275 274 273 271 270 269 267 266 264 263 262 260 259 258 257 257 258 257 257 257 257 256 255 254 253 252 252 251 252 252 252
290 290 289 289 288 288 287 285 284 283 281 280 278 276 273 271 270 269 268 266 265 263 261 260 259 258 256 256 256 256 256 256 255 255 254 254 254 254 255 256 255 255 256
297 296 295 294 293 292 291 289 289 288 286 284 282 280 278 276 274 272 269 268 266 263 262 260 258 257 256 255 254 254 254 254 255 255 254 254 253 253 252 253 253 253 254